Regional Weather Roundup
Issued by NWS

Home | Current Version | Previous Version | Graphics & Text | Print | Product List | Glossary On
Versions: 1 2 3 4 5 6 7 8 9 10 11 12 13 14 15 16 17 18 19 20 21 22 23 24 25 26 27 28 29 30 31 32 33 34 35 36 37 38 39 40 41 42 43 44 45 46 47 48 49 50
000
ASUS43 KDTX 200601
RWRMI
MICHIGAN HOURLY REGIONAL WEATHER ROUNDUP
NATIONAL WEATHER SERVICE DETROIT/PONTIAC MI
200 AM EDT WED AUG 20 2014

NOTE: "FAIR" INDICATES FEW OR NO CLOUDS BELOW 12,000 FEET WITH NO
SIGNIFICANT WEATHER AND/OR OBSTRUCTION TO VISIBILITY.

MIZ047>049-052>055-059>063-066>070-074>076-081>083-200700-
SOUTHEAST LOWER MICHIGAN

CITY           SKY/WX    TMP DP  RH WIND       PRES   REMARKS
ADRIAN         FAIR      66  64  93 CALM      29.80F
6HR MIN TEMP:  66; 6HR MAX TEMP:  68;

ALMA           CLOUDY    68  66  96 SW3       29.77F FOG
ANN ARBOR      MOCLDY    66  63  90 CALM      29.79F
BAD AXE        CLOUDY    66  66 100 S6        29.78S
6HR MIN TEMP:  65; 6HR MAX TEMP:  68;

CARO           FAIR      65  64  96 S3        29.77F
DETROIT CITY   MOCLDY    71  66  84 S9        29.80S
6HR MIN TEMP:  69; 6HR MAX TEMP:  71; 6HR PCP: TRACE;

DETROIT        RAIN      68  66  93 S8        29.80F FOG
6HR MIN TEMP:  66; 6HR MAX TEMP:  68; 6HR PCP:  0.01;

FLINT          CLOUDY    67  63  87 SW5       29.78F
6HR MIN TEMP:  66; 6HR MAX TEMP:  68; 6HR PCP:  0.02;

GROSSE ILE     LGT RAIN  70  66  88 S6        29.79F
HILLSDALE      FAIR      66  66 100 CALM      29.79F
6HR MIN TEMP:  66; 6HR MAX TEMP:  69;

HOWELL         FAIR      64  63  96 CALM      29.79F

CITY           SKY/WX    TMP DP  RH WIND       PRES   REMARKS
JACKSON        FAIR      67  64  90 SW5       29.78F
6HR MIN TEMP:  66; 6HR MAX TEMP:  68;

LAMBERTVILLE   FAIR      66  63  88 CALM      29.80F FOG
LANSING        MOCLDY    67  65  93 S3        29.77F
6HR MIN TEMP:  64; 6HR MAX TEMP:  68; 6HR PCP: TRACE;

LAPEER         CLOUDY    64  63  95 CALM      29.79S
MASON          FAIR      65  63  94 CALM      29.78F
MONROE         CLOUDY    66  64  94 CALM      29.79F
MT. CLEMENS    MOCLDY    68  66  96 S9        29.80R
6HR MIN TEMP:  65; 6HR MAX TEMP:  68; 6HR PCP: TRACE;

PONTIAC        FAIR      66  63  90 S5        29.80R
6HR MIN TEMP:  65; 6HR MAX TEMP:  67;

PORT HOPE        N/A     67  64  90 SW6       29.76R
6HR MIN TEMP:  67; 6HR MAX TEMP:  71;

PORT HURON     CLOUDY    66  66 100 S6        29.80S
TRI CITIES     CLOUDY    69  66  90 SW7       29.77S
6HR MIN TEMP:  68; 6HR MAX TEMP:  70;

TROY           FAIR      68  65  89 S5        29.82S
SAGINAW HB     MOCLDY    66  66 100 SW7       29.76F
$$
MIZ043>046-050>051-056>058-064>065-071>073-077>080-200700-
SOUTHWEST LOWER MICHIGAN

CITY           SKY/WX    TMP DP  RH WIND       PRES   REMARKS
BATTLE CREEK   MOCLDY    69  66  90 S3        29.78F
6HR MIN TEMP:  69; 6HR MAX TEMP:  71;

BENTON HARBOR  FAIR      68  65  90 W3        29.76S
6HR MIN TEMP:  67; 6HR MAX TEMP:  76; 6HR PCP: TRACE;

BIG RAPIDS     CLOUDY    67  67 100 S5        29.76S FOG
6HR MIN TEMP:  64; 6HR MAX TEMP:  73;

COLDWATER      FAIR      67  66  96 CALM      29.78F FOG
6HR MIN TEMP:  67; 6HR MAX TEMP:  72;

FREMONT        FOG       66  65  97 CALM      29.76S VSB 1/4
HOLLAND        FAIR      68  66  93 S3        29.76F
6HR MIN TEMP:  68; 6HR MAX TEMP:  73; 6HR PCP:  0.03;

GRAND RAPIDS   FAIR      69  69 100 CALM      29.76F FOG
6HR MIN TEMP:  69; 6HR MAX TEMP:  73;

IONIA          CLOUDY    65  65  97 CALM      29.77S FOG
KALAMAZOO      CLOUDY    70  66  87 SW5       29.77F
6HR MIN TEMP:  69; 6HR MAX TEMP:  72;

LUDINGTON      FAIR      67  65  94 SW8       29.75R
6HR MIN TEMP:  61; 6HR MAX TEMP:  72;

MARSHALL       CLOUDY    66  65  97 CALM      29.77F
MOUNT PLEASANT MOCLDY    69  67  95 SW5       29.75F FOG
6HR MIN TEMP:  69; 6HR MAX TEMP:  72;

MUSKEGON       FOG       65  63  93 CALM      29.76S VSB 1
6HR MIN TEMP:  65; 6HR MAX TEMP:  72; 6HR PCP:  0.01;

SOUTH HAVEN    FAIR      70  68  94 CALM      29.76F
$$
MIZ016>042-200700-
NORTHERN LOWER MICHIGAN

CITY           SKY/WX    TMP DP  RH WIND       PRES   REMARKS
ALPENA         FOG       64  64 100 CALM      29.74S VSB 1
6HR MIN TEMP:  64; 6HR MAX TEMP:  73;

BEAVER ISLAND  CLOUDY    63  62  98 E3        29.73S FOG
6HR MIN TEMP:  63; 6HR MAX TEMP:  68;

BELLAIRE       CLOUDY    66  65  94 CALM      29.73S
6HR MIN TEMP:  64; 6HR MAX TEMP:  71;

CADILLAC       CLOUDY    64  64 100 CALM      29.76S
CHARLEVOIX     FAIR      62  62 100 CALM      29.76S FOG
6HR MIN TEMP:  62; 6HR MAX TEMP:  68;

FRANKFORT      CLOUDY    64  61  90 CALM      29.75R FOG
GAYLORD        MOCLDY    65  64  97 CALM      29.76S FOG
6HR MIN TEMP:  65; 6HR MAX TEMP:  70; 6HR PCP:  0.12;

GRAYLING       FOG       60  60 100 CALM      29.77R VSB 1/4
6HR MIN TEMP:  60; 6HR MAX TEMP:  73;

HARBOR SPRINGS MOCLDY    64  63  96 CALM      29.73S FOG
HOUGHTON LAKE  FAIR      65  64  97 S3        29.77R FOG
6HR MIN TEMP:  63; 6HR MAX TEMP:  70;

MANISTEE       MOCLDY    64  61  88 W5        29.76R
OSCODA         CLOUDY    68  67  98 S8        29.75R FOG
PELLSTON       CLOUDY    61  60  97 NE5       29.74S
6HR MIN TEMP:  61; 6HR MAX TEMP:  68; 6HR PCP:  0.21;

ROGERS CITY    FOG       63  63 100 MISG      29.75R VSB 3/4
TRAVERSE CITY  CLOUDY    67  63  87 S3        29.72S
6HR MIN TEMP:  66; 6HR MAX TEMP:  74;

$$
MIZ007>008-015-200700-
EASTERN UPPER MICHIGAN

CITY           SKY/WX    TMP DP  RH WIND       PRES   REMARKS
KINROSS        CLOUDY    61  61 100 E7        29.75S
6HR MIN TEMP:  61; 6HR MAX TEMP:  61; 6HR PCP:  0.01;

MACKINAC ISLAN FOG       59  59 100 NE6       29.74S VSB 1/2
6HR MIN TEMP:  57; 6HR MAX TEMP:  59;

NEWBERRY       FOG       60  60 100 CALM      29.74S VSB 1/2
S. S. MARIE    CLOUDY    61  58  90 E3        29.74F
6HR MIN TEMP:  61; 6HR MAX TEMP:  62; 6HR PCP: TRACE;

$$
MIZ004>006-011>014-085-200700-
CENTRAL UPPER MICHIGAN

CITY           SKY/WX    TMP DP  RH WIND       PRES   REMARKS
MANISTIQUE     CLOUDY    61  61 100 CALM      29.73R FOG
6HR MIN TEMP:  60; 6HR MAX TEMP:  62; 6HR PCP:  0.01;

ESCANABA       CLOUDY    61  57  88 N3        29.74S
6HR MIN TEMP:  61; 6HR MAX TEMP:  66; 6HR PCP:  0.01;

MENOMINEE      MOCLDY    63  59  88 N3        29.74S
6HR MIN TEMP:  63; 6HR MAX TEMP:  66; 6HR PCP:  0.04;

SAWYER-GWINN   CLOUDY    58  57  97 N6        29.76S FOG
$$
MIZ001>003-009>011-084-200700-
WESTERN UPPER MICHIGAN

CITY           SKY/WX    TMP DP  RH WIND       PRES   REMARKS
IRON MOUNTAIN  CLOUDY    61  57  87 NW9       29.76R
6HR MIN TEMP:  61; 6HR MAX TEMP:  68;

HOUGHTON       FOG       54  53  97 NW6       29.78S VSB 1
6HR MIN TEMP:  53; 6HR MAX TEMP:  57; 6HR PCP:  0.02;

COPPER HARBOR    N/A     56  55  97 N7        29.77R
6HR MIN TEMP:  52; 6HR MAX TEMP:  56; 6HR PCP:  0.02;

IRONWOOD       CLOUDY    55  55 100 NW5       29.80S VSB 1/4
6HR MIN TEMP:  55; 6HR MAX TEMP:  57;

$$

ABBREVIATIONS USED IN REMARKS
   TC - TEMPERATURE IN CELSIUS
  WCI - WIND CHILL INDEX
   HX - HEAT INDEX
  VSB - VISIBILITY



USA.gov is the U.S. government's official web portal to all federal, state and local government web resources and services.